STARLINK-1805, 46705

Orbit data source: Space-Track

STARLINK-1805, 46705 is a payload satellite owned by SpaceX/Seattle (US) in LEO that was launched on Sun, 18 Oct 2020 UTC via an FALCON 9 launch vehicle from the Air Force Eastern Test Range (AFETR). Payload-class satellites include a variety of spacecraft equipped with specific instruments for various scientific and technological missions. These include communications satellites like Starlink; space stations such as the ISS; scientific satellites like the Hubble; Earth observation satellites from companies like Planet Labs, Umbra, and HawkEye 360; GPS; miniature CubeSats for education and research; and military/defense satellites.

Loading next visibility...
Identifier
46705, 2020-073AM
Orbit
LEO
Country
Flag of USUS
Related business
Manufacturer
SpaceX/Seattle
Mission
Operational Commercial Communications
Bus & Motor
STARLINK, Unknown motor
Mass
260 kg wet, ~248 kg dry
Launch date (UTC)
2020-10-18 (5 years ago)
Launch vehicle
FALCON 9
Launch site
Air Force Eastern Test Range (AFETR)
Object type
Payload
Rocket body
Debris
Shape & HBR
Box + 1 Pan, 10.1 m
Radar Cross Section
13.562 m², Large (>1 m²)

Expand to show TLE details & history
Last TLE update: 21 hours ago

TLE from 21 hours ago
0 STARLINK-1805
1 46705U 20073AM  25312.64856823 -.00000462  00000-0 -12070-4 0  9997
2 46705  53.0465  79.9906 0002427  92.6583 267.4684 15.06402946278679
Epoch: 2025-11-08T15:33Z
TLE epoch observation values (Epoch: 2025-11-08T15:33:56.295Z)
Latitude
0.00002°
Longitude
158.43089°
Altitude
548.155 km
Speed
7.589 km/s
True Right ascension
05h 19m 57s
True Declination
0° 00' 00"
Sunlit
Object was in full shadow at epoch
Visualization orbit readout
Latitude
Unknown
Longitude
Unknown
Altitude
Unknown
Speed
Unknown
Apparent Right ascension
Unknown
Apparent Declination
Unknown
Sunlit
N/A
Visualization observer readout
Local Sidereal Time
08:22:14
Azimuth
Unknown
Elevation
Unknown
Doppler factor
Unknown
Orbital elements
Apogee altitude
549.155 km
Perigee altitude
545.794 km
Semi-major axis
6,925.612 km
Eccentricity
0.00024
Inclination
53.0465°
RAAN
79.9906°
Arg. of periapsis
92.6583°
True anomaly
267.44062°
Mean anomaly
267.4684°
Eccentric anomaly
267.45451°
Mean motion
3.76579 °/min
Orbital period
95.6 mins
BSTAR
-0.00001207
Loading maneuver chart data...
Computing Atmospheric mass density...

Documentation

Showing up to 5 results
|